Location: Unspecified
(0.0000°N, 0.0000°E)
Time: 06:12:59
(UTC+00:00)

deb Explorer IX - Visible Passes

Search period start: 25 July 2016 00:00
Search period end: 04 August 2016 00:00
Orbit: 553 x 1126 km, 38.8° (Epoch: 23 July)

Date Brightness Start Highest point End Pass type
(mag) Time Alt. Az. Time Alt. Az. Time Alt. Az.
25 Jul ? 18:48:14 10° NW 18:54:17 57° NE 18:59:56 16° ESE visible
25 Jul ? 20:36:19 10° W 20:41:37 30° SW 20:41:37 30° SW visible
26 Jul ? 18:30:43 10° NW 18:36:42 62° NE 18:43:36 10° ESE visible
26 Jul ? 20:19:02 10° W 20:24:33 27° SW 20:25:27 26° SSW visible
27 Jul ? 05:32:03 10° SSW 05:36:30 23° SE 05:40:28 10° E visible
27 Jul ? 20:01:48 10° W 20:06:59 24° SW 20:09:17 21° S visible
28 Jul ? 05:14:09 10° SSW 05:19:03 27° SE 05:23:19 10° E visible
28 Jul ? 19:44:36 10° W 19:49:25 22° SW 19:53:07 15° S visible
29 Jul ? 04:56:31 11° SSW 05:01:33 31° SE 05:06:08 10° E visible
29 Jul ? 19:27:28 10° W 19:31:52 19° SW 19:36:40 10° S visible
30 Jul ? 04:40:19 18° SSW 04:44:03 35° SE 04:48:54 10° ENE visible
30 Jul ? 19:10:24 10° WSW 19:14:20 17° SW 19:18:35 10° S visible
31 Jul ? 04:24:08 28° S 04:26:31 40° SE 04:31:36 10° ENE visible
31 Jul ? 18:53:26 10° WSW 18:56:48 15° SW 19:00:26 10° S visible
01 Aug ? 04:07:57 41° SSE 04:08:58 45° SE 04:14:18 10° ENE visible
01 Aug ? 18:36:35 10° WSW 18:39:17 13° SSW 18:42:08 10° S visible
02 Aug ? 03:51:45 50° SE 03:51:45 50° SE 03:56:56 10° ENE visible
02 Aug ? 05:33:49 10° W 05:38:42 25° NW 05:43:01 10° NNE visible
03 Aug ? 03:35:31 43° E 03:35:31 43° E 03:39:33 10° ENE visible
03 Aug ? 05:17:13 13° W 05:21:07 23° NW 05:25:24 10° N visible
